Date,TemperatureHighF,TemperatureAvgF,TemperatureLowF,DewpointHighF,DewpointAvgF,DewpointLowF,HumidityHigh,HumidityAvg,HumidityLow,PressureMaxIn,PressureMinIn,WindSpeedMaxMPH,WindSpeedAvgMPH,GustSpeedMaxMPH,PrecipitationSumIn
2013-1-1,63.3,56.4,44.6,62.5,55.2,43.8,99,96,89,30.15,29.94,11,3,11,0.85
2013-1-2,44.6,40.9,37.0,43.8,38.2,31.9,99,90,81,30.27,30.12,10,3,10,0.00
2013-1-3,55.9,40.0,33.6,32.1,27.5,22.4,82,63,29,30.42,30.25,9,3,9,0.00
2013-1-4,54.7,46.4,32.4,31.5,25.9,20.7,81,49,29,30.49,30.39,7,3,7,0.00
2013-1-5,54.0,54.0,54.0,24.8,24.8,24.8,32,32,32,30.45,30.45,3,3,3,0.00
2013-1-6,54.0,54.0,54.0,24.8,24.8,24.8,32,32,32,30.45,30.45,3,3,3,0.00
2013-1-7,54.0,54.0,54.0,24.8,24.8,24.8,32,32,32,30.45,30.45,3,3,3,0.00
2013-1-8,54.0,54.0,54.0,24.8,24.8,24.8,32,32,32,30.45,30.45,3,3,3,0.00
2013-1-9,66.7,60.1,54.0,66.5,47.5,24.8,99,70,32,30.45,30.13,9,3,9,2.50
2013-1-10,68.5,65.1,61.5,67.7,64.4,61.0,99,97,93,30.19,29.97,21,4,21,0.92
2013-1-11,71.4,66.2,63.0,68.2,65.1,62.1,99,96,86,30.13,29.85,8,3,8,0.18
2013-1-12,79.5,71.0,68.0,69.0,67.3,64.4,99,89,65,30.06,29.92,17,6,17,0.01
2013-1-13,73.6,61.2,42.8,70.5,58.9,42.3,99,92,78,30.15,29.85,17,6,21,0.56
2013-1-14,43.2,39.2,34.0,42.6,38.8,33.2,99,98,96,30.21,30.09,14,4,14,0.74
2013-1-15,41.2,38.5,35.1,40.9,38.2,34.6,99,99,97,30.14,30.00,9,3,9,0.66
2013-1-16,35.6,34.3,33.3,34.9,33.8,33.0,99,98,97,30.17,30.04,12,4,12,0.07
2013-1-17,55.4,41.3,32.5,38.5,34.1,31.6,99,78,43,30.46,30.15,18,5,18,0.01
2013-1-18,69.4,45.3,32.4,38.5,31.0,22.6,99,65,19,30.57,29.86,9,2,9,0.00
2013-1-19,70.2,48.3,30.9,47.3,39.2,30.2,99,75,39,30.42,30.26,10,1,10,0.00
2013-1-20,75.4,51.4,35.6,53.0,38.0,27.2,99,68,19,30.30,30.16,6,1,6,0.00
2013-1-21,68.4,46.3,38.3,50.1,40.2,37.8,99,83,37,30.25,30.16,8,1,8,0.00